User: anonymous   Login
Location: Newark
(47.4333°N, 19.2500°E)
Time: 15:16:34
(UTC+00:00)
Language:

ISS - Orbit

View from above orbital plane
View from above orbital plane
View from above satellite
View from above satellite

Ground track
Ground track

The orbit data is extracted from the following two-line orbital elements,

1 25544U 98067A   21107.58244333  .00000946  00000-0  25412-4 0  9990
2 25544  51.6445 282.4828 0002680 236.8482 199.8666 15.48892929279202
Epoch (UTC): 17 April 2021 13:58:43
Eccentricity: 0.0002680
inclination: 51.6445°
perigee height: 418 km
apogee height: 422 km
right ascension of ascending node: 282.4828°
argument of perigee: 236.8482°
revolutions per day: 15.48892929
mean anomaly at epoch: 199.8666°
orbit number at epoch: 27920

The dashed part of the orbit path shows where the satellite is in the earth's shadow,  

DLR